Abingdon, VA

10:32 AM EDT on October 15, 2019 (GMT -0400)
Virginia Highlands

Weather History for KVJI - August, 2019

Change the Weather History Date:

Monday, August 19, 2019

  Actual Average (KTRI) Record (KTRI)
Temperature  
Mean Temperature 76 °F -  
Max Temperature 87 °F 85 °F 96 °F (2007)
Min Temperature 65 °F 63 °F 52 °F (1943)
Cooling Degree Days 11    
Growing Degree Days 26 (Base 50)    
Moisture  
Dew Point 67 °F    
Average Humidity 78    
Maximum Humidity 100    
Minimum Humidity 44    
Precipitation  
Precipitation 0.00 in - - ()
Sea Level Pressure  
Sea Level Pressure 30.14 in    
Wind  
Wind Speed 1 mph (SW)    
Max Wind Speed 7 mph    
Max Gust Speed -    
Visibility 10 miles    
Events      
Averages and records for this station are not official NWS values.
T = Trace of Precipitation, MM = Missing Value Source: NWS Daily Summary

Daily Weather History Graph

Daily Weather History Graph

Search for Another Location

Airport or City:

Astronomy

Aug. 19, 2019 Rise Set
Actual Time 6:48 AM EDT 8:14 PM EDT
Civil Twilight 6:21 AM EDT 8:41 PM EDT
Nautical Twilight 5:48 AM EDT 9:14 PM EDT
Astronomical Twilight 5:14 AM EDT 9:48 PM EDT
Moon 10:41 PM EDT (8/19) 10:23 AM EDT (8/19)
Length of Visible Light 14h 20m
Length of Day
13h 25m
Waning Gibbous, 85% of the Moon is Illuminated
Aug 19
Waning Gibbous
Aug 23
Last Quarter
Aug 30
New
Sep 5
First Quarter
Sep 14
Full

Hourly Weather History & Observations

Time (EDT) Temp. Heat Index Dew Point Humidity Pressure Visibility Wind Dir Wind Speed Gust Speed Precip Events Conditions
12:15 AM 69.1 °F - 67.3 °F 94% 30.09 in 10.0 mi Calm Calm - N/A   Clear
12:35 AM 69.1 °F - 66.7 °F 92% 30.10 in 10.0 mi Calm Calm - N/A   Clear
12:55 AM 69.3 °F - 67.1 °F 93% 30.10 in 10.0 mi Calm Calm - N/A   Clear
1:15 AM 68.7 °F - 67.1 °F 95% 30.11 in 10.0 mi Calm Calm - N/A   Clear
1:35 AM 68.5 °F - 67.1 °F 95% 30.11 in 10.0 mi Calm Calm - N/A   Clear
1:55 AM 68.2 °F - 66.6 °F 95% 30.11 in 10.0 mi East 4.6 mph - N/A   Clear
2:15 AM 67.6 °F - 66.6 °F 96% 30.11 in 10.0 mi Calm Calm - N/A   Clear
2:35 AM 68.9 °F - 67.1 °F 94% 30.11 in 10.0 mi East 3.5 mph - N/A   Clear
2:55 AM 68.5 °F - 66.4 °F 93% 30.10 in 10.0 mi Calm Calm - N/A   Clear
3:15 AM 68.0 °F - 66.4 °F 95% 30.10 in 10.0 mi ESE 3.5 mph - N/A   Clear
3:35 AM 67.1 °F - 65.7 °F 95% 30.11 in 10.0 mi East 3.5 mph - N/A   Clear
3:55 AM 67.1 °F - 66.2 °F 97% 30.11 in 10.0 mi Calm Calm - N/A   Clear
4:15 AM 67.3 °F - 66.6 °F 98% 30.11 in 10.0 mi Calm Calm - N/A   Clear
4:35 AM 67.1 °F - 66.2 °F 97% 30.11 in 10.0 mi Calm Calm - N/A   Clear
4:55 AM 66.7 °F - 66.0 °F 98% 30.11 in 10.0 mi Calm Calm - N/A   Clear
5:15 AM 66.4 °F - 66.0 °F 99% 30.12 in 10.0 mi Calm Calm - N/A   Clear
5:35 AM 66.2 °F - 65.8 °F 99% 30.12 in 10.0 mi Calm Calm - N/A   Clear
5:55 AM 66.2 °F - 65.8 °F 99% 30.12 in 10.0 mi Calm Calm - N/A   Clear
6:15 AM 66.0 °F - 66.0 °F 100% 30.12 in 10.0 mi Calm Calm - N/A   Clear
6:35 AM 66.2 °F - 66.2 °F 100% 30.14 in 10.0 mi Calm Calm - N/A   Clear
6:55 AM 65.8 °F - 65.8 °F 100% 30.15 in 10.0 mi Calm Calm - N/A   Clear
7:15 AM 66.0 °F - 66.0 °F 100% 30.15 in 10.0 mi Calm Calm - N/A   Clear
7:35 AM 66.6 °F - 66.6 °F 100% 30.15 in 10.0 mi Calm Calm - N/A   Clear
7:55 AM 68.4 °F - 67.5 °F 97% 30.16 in 10.0 mi Calm Calm - N/A   Clear
8:15 AM 69.3 °F - 67.6 °F 95% 30.16 in 10.0 mi East 3.5 mph - N/A   Clear
8:35 AM 70.2 °F - 67.3 °F 91% 30.16 in 10.0 mi Calm Calm - N/A   Clear
8:55 AM 73.0 °F - 68.0 °F 84% 30.17 in 10.0 mi ESE 3.5 mph - N/A   Clear
9:15 AM 74.3 °F - 68.0 °F 81% 30.17 in 10.0 mi Calm Calm - N/A   Clear
9:35 AM 76.1 °F - 68.9 °F 78% 30.17 in 10.0 mi Calm Calm - N/A   Clear
9:55 AM 76.5 °F - 68.4 °F 76% 30.17 in 10.0 mi Calm Calm - N/A   Clear
10:15 AM 78.3 °F - 68.5 °F 72% 30.18 in 10.0 mi Calm Calm - N/A   Clear
10:35 AM 79.3 °F - 67.5 °F 67% 30.18 in 10.0 mi West 6.9 mph - N/A   Scattered Clouds
10:55 AM 79.3 °F - 68.7 °F 70% 30.18 in 10.0 mi SSW 5.8 mph - N/A   Scattered Clouds
11:15 AM 80.1 °F 82.8 °F 68.5 °F 68% 30.18 in 10.0 mi SW 4.6 mph - N/A   Clear
11:35 AM 80.6 °F 83.4 °F 68.4 °F 66% 30.19 in 10.0 mi SW 5.8 mph - N/A   Clear
11:55 AM 80.6 °F 83.2 °F 67.8 °F 65% 30.19 in 10.0 mi WSW 5.8 mph - N/A   Clear
12:15 PM 80.4 °F 83.0 °F 67.6 °F 65% 30.19 in 10.0 mi WSW 4.6 mph - N/A   Clear
12:35 PM 80.6 °F 83.5 °F 68.5 °F 67% 30.18 in 10.0 mi WSW 4.6 mph - N/A   Clear
12:55 PM 81.0 °F 83.9 °F 68.5 °F 66% 30.18 in 10.0 mi WNW 3.5 mph - N/A   Clear
1:15 PM 81.5 °F 84.2 °F 67.8 °F 63% 30.18 in 10.0 mi NW 3.5 mph - N/A   Clear
1:35 PM 82.0 °F 84.9 °F 67.6 °F 62% 30.18 in 10.0 mi Calm Calm - N/A   Clear
2:15 PM 83.5 °F 86.2 °F 67.1 °F 58% 30.17 in 10.0 mi Calm Calm - N/A   Clear
2:35 PM 84.2 °F 86.6 °F 66.4 °F 55% 30.17 in 10.0 mi WNW 4.6 mph - N/A   Clear
2:55 PM 85.3 °F 87.9 °F 67.1 °F 54% 30.16 in 10.0 mi SW 3.5 mph - N/A   Clear
3:15 PM 85.6 °F 88.5 °F 67.5 °F 54% 30.16 in 10.0 mi SW 3.5 mph - N/A   Clear
3:35 PM 86.9 °F 89.6 °F 66.9 °F 51% 30.15 in 10.0 mi WSW 5.8 mph - N/A   Scattered Clouds
3:55 PM 86.7 °F 89.3 °F 66.7 °F 51% 30.13 in 10.0 mi Calm Calm - N/A   Scattered Clouds
4:15 PM 86.2 °F 88.8 °F 66.9 °F 52% 30.13 in 10.0 mi South 3.5 mph - N/A   Scattered Clouds
4:35 PM 87.3 °F 89.8 °F 66.6 °F 50% 30.12 in 10.0 mi Calm Calm - N/A   Clear
4:55 PM 87.8 °F 90.4 °F 66.6 °F 49% 30.11 in 10.0 mi North 3.5 mph - N/A   Clear
5:15 PM 87.1 °F 89.2 °F 65.7 °F 49% 30.11 in 10.0 mi Calm Calm - N/A   Clear
5:35 PM 86.5 °F 88.1 °F 64.6 °F 48% 30.11 in 10.0 mi Calm Calm - N/A   Clear
5:55 PM 86.2 °F 87.6 °F 64.2 °F 48% 30.11 in 10.0 mi Calm Calm - N/A   Clear
6:15 PM 86.4 °F 86.8 °F 62.2 °F 44% 30.11 in 10.0 mi NNW 3.5 mph - N/A   Clear
6:35 PM 86.4 °F 87.6 °F 64.2 °F 47% 30.11 in 10.0 mi North 3.5 mph - N/A   Clear
6:55 PM 85.3 °F 85.9 °F 62.4 °F 46% 30.11 in 10.0 mi Calm Calm - N/A   Clear
7:15 PM 83.5 °F 86.2 °F 67.5 °F 58% 30.11 in 10.0 mi South 4.6 mph - N/A   Clear
7:35 PM 83.3 °F 85.9 °F 67.3 °F 58% 30.12 in 10.0 mi SSW 3.5 mph - N/A   Clear
7:55 PM 82.4 °F 85.0 °F 67.5 °F 60% 30.12 in 10.0 mi Calm Calm - N/A   Clear
8:15 PM 79.5 °F - 69.3 °F 71% 30.12 in 10.0 mi Calm Calm - N/A   Clear
8:35 PM 77.7 °F - 69.8 °F 76% 30.12 in 10.0 mi Calm Calm - N/A   Clear
8:55 PM 75.9 °F - 70.2 °F 82% 30.14 in 10.0 mi Calm Calm - N/A   Clear
9:15 PM 75.7 °F - 69.3 °F 80% 30.14 in 10.0 mi Calm Calm - N/A   Clear
9:35 PM 74.7 °F - 69.8 °F 85% 30.16 in 10.0 mi Calm Calm - N/A   Clear
9:55 PM 75.0 °F - 69.6 °F 83% 30.16 in 10.0 mi Calm Calm - N/A   Clear
10:15 PM 73.2 °F - 69.8 °F 89% 30.17 in 10.0 mi Calm Calm - N/A   Clear
10:35 PM 73.2 °F - 69.3 °F 87% 30.17 in 10.0 mi Calm Calm - N/A   Clear
10:55 PM 71.6 °F - 69.3 °F 92% 30.18 in 10.0 mi Calm Calm - N/A   Clear
11:15 PM 71.8 °F - 69.3 °F 92% 30.18 in 10.0 mi Calm Calm - N/A   Clear
11:35 PM 71.2 °F - 69.1 °F 93% 30.18 in 10.0 mi Calm Calm - N/A   Clear
11:55 PM 70.7 °F - 68.7 °F 93% 30.18 in 10.0 mi Calm Calm - N/A   Clear